Temperature
19 19 19 18 18 18 19 20 20 20 20 20 20 19 18 18 18 18 18 18 18 18 18 18 18 18 19 19 19 19 19 19 19 19 19 19 19 19 19 19 19 19 19 19 19 19 19 19 19
19 19 18 18 18 19 20 20 20 20 20 20 19 19 18 18 18 18 18 18 18 18 18 18 18 18 18 18 18 18 19 19 19 19 19 19 19 19 19 19 19 19 19 19 19 19 19 19 19
19 19 19 17 18 19 20 20 20 20 20 20 19 18 18 18 18 18 18 18 18 18 18 18 18 18 18 18 18 18 18 18 18 18 18 18 18 18 18 19 19 19 19 19 19 19 19 19 19
19 19 18 18 19 19 19 20 19 20 20 19 18 17 17 18 18 18 18 18 18 18 18 18 18 18 18 17 17 18 18 18 18 18 18 18 18 18 18 18 18 18 18 19 19 19 19 18 18
19 19 18 19 19 19 19 20 20 20 20 19 18 17 17 18 18 18 18 18 18 18 18 18 18 17 17 17 17 17 17 17 17 17 17 17 18 18 18 18 18 18 18 18 18 18 18 18 18
19 18 18 19 19 19 19 20 20 20 19 19 18 17 17 18 18 18 18 18 18 18 17 17 17 17 17 17 17 17 17 17 17 17 17 17 17 17 17 17 17 17 18 18 18 18 18 18 18
19 18 19 19 19 19 20 20 20 19 19 19 19 17 17 17 18 18 18 18 17 17 17 17 17 17 17 17 17 17 17 16 17 17 17 17 17 17 17 17 17 17 17 17 18 18 18 18 18
20 17 19 19 19 20 20 20 20 20 19 19 19 18 17 18 18 18 18 17 17 17 17 17 17 17 17 16 16 16 16 16 16 16 16 16 16 16 17 17 17 17 17 17 17 17 17 17 17
20 18 18 19 19 20 20 20 20 20 20 19 19 19 19 18 18 18 18 18 17 17 17 17 16 16 16 16 16 16 16 16 16 16 16 16 16 16 16 16 17 17 17 17 17 17 17 17 17
19 18 19 19 19 19 20 20 20 20 19 19 19 19 19 18 18 18 18 18 17 17 17 16 16 16 16 15 15 15 15 15 15 15 15 15 16 16 16 16 16 16 16 17 17 17 17 17 17
19 19 19 19 20 20 20 20 20 19 18 19 19 19 18 18 18 18 18 18 17 17 16 16 16 15 15 15 15 15 15 15 15 15 15 15 15 15 15 15 16 16 16 16 16 16 17 17 17
19 19 19 20 20 20 20 20 20 20 21 21 21 20 19 19 18 18 18 18 17 17 16 16 15 15 15 15 14 14 14 14 14 15 15 15 15 15 15 15 15 16 16 16 16 16 16 16 16
19 19 19 20 20 20 20 20 20 20 21 21 20 19 19 19 19 18 18 18 17 17 16 16 15 15 14 14 14 14 14 14 14 14 14 14 14 15 15 15 15 15 15 15 16 16 16 16 16
19 19 19 19 20 20 20 19 20 20 21 20 20 19 19 19 19 18 18 18 17 17 16 15 15 14 14 14 14 14 13 13 13 14 14 14 14 14 14 14 15 15 15 15 15 16 16 16 16
19 19 19 19 19 20 20 19 19 20 20 20 19 19 19 19 19 19 18 18 17 17 16 15 15 14 14 14 13 13 13 13 13 13 13 14 14 14 14 14 14 14 15 15 15 15 15 16 16
18 19 19 20 19 20 20 19 20 20 20 19 19 19 19 19 19 18 18 18 17 16 16 15 15 14 14 14 13 13 13 13 13 13 13 13 13 14 14 14 14 14 14 14 15 15 15 15 15
18 18 19 19 19 19 19 19 19 20 19 19 19 19 19 19 18 18 18 17 17 16 16 15 14 14 14 13 13 13 13 13 13 13 13 13 13 13 13 13 13 14 14 14 14 14 15 15 15
18 18 19 19 20 19 18 18 19 19 19 19 19 19 19 19 19 18 18 17 17 16 16 15 14 14 13 13 13 13 13 12 12 12 13 13 13 13 13 13 13 13 13 13 14 14 14 15 15
19 19 19 20 20 19 18 18 18 18 18 18 18 19 19 19 19 18 18 17 17 16 15 15 14 14 13 13 13 13 13 12 12 12 12 12 12 12 12 13 13 13 13 13 13 14 14 14 14
19 19 19 20 20 19 18 18 18 18 17 18 18 19 19 19 18 18 18 17 17 16 15 15 14 13 13 13 13 12 12 12 12 12 12 12 12 12 12 12 12 12 13 13 13 13 14 14 14
19 19 19 20 20 19 19 18 18 18 18 18 19 19 19 19 19 18 18 17 17 16 15 15 14 13 13 13 12 12 12 12 12 12 12 12 12 12 12 12 12 12 12 12 13 13 13 13 14
19 20 20 20 19 18 19 17 17 17 17 17 18 18 19 19 19 19 18 17 17 16 15 15 14 13 13 13 12 12 12 12 12 12 12 12 12 12 12 12 12 12 12 12 12 12 13 13 13
20 20 19 19 18 18 17 17 17 17 17 16 16 18 19 19 19 19 18 18 17 16 15 15 14 14 13 13 12 12 12 12 12 12 12 12 11 11 11 11 11 12 12 12 12 12 12 13 13
19 18 17 15 16 17 18 17 17 16 17 17 17 18 19 20 19 19 18 17 17 16 15 15 14 14 13 13 13 12 12 12 12 12 12 12 11 11 11 11 11 11 11 12 12 12 12 12 12
19 18 17 17 16 16 17 17 16 17 17 17 18 19 20 20 19 19 18 17 17 16 16 15 14 14 14 13 13 12 12 12 12 12 12 11 11 11 11 11 11 11 11 11 12 12 12 12 12
18 18 17 18 17 16 17 16 17 18 18 18 19 19 20 20 19 19 19 18 17 16 16 15 15 14 14 13 13 13 12 12 12 12 12 11 11 11 11 11 11 11 11 11 11 11 11 12 12
18 17 17 16 16 16 16 16 17 18 18 18 18 18 19 20 19 19 19 18 17 17 16 15 15 15 14 14 13 13 12 12 12 12 12 11 11 11 11 11 11 11 11 11 11 11 11 11 11
18 15 14 15 16 17 16 17 17 18 18 18 17 17 19 20 20 19 19 18 17 17 16 16 15 15 14 14 13 13 13 12 12 12 12 12 11 11 11 11 11 11 11 11 11 11 11 11 11
18 17 15 13 14 15 16 16 17 17 17 17 17 19 20 20 20 19 19 18 18 17 16 16 15 15 15 14 14 13 13 13 13 12 12 12 12 11 11 11 11 11 11 11 11 11 11 11 11
19 17 15 16 16 14 14 16 17 16 16 17 18 20 21 21 20 20 19 18 18 17 16 16 16 15 15 14 14 13 13 13 13 13 13 12 12 12 12 11 11 11 11 11 11 11 11 11 11
Wind_Speed
9 10 4 2 3 2 2 3 2 1 2 3 5 6 6 5 3 3 2 1 2 3 4 6 7 6 6 5 5 6 5 6 6 6 7 7 7 7 6 6 5 5 5 5 4 3 3 4 4
9 5 3 3 2 1 2 2 1 1 4 4 5 5 6 5 3 2 2 2 4 4 4 4 4 4 4 5 5 6 6 5 6 6 6 7 7 7 7 7 6 6 6 5 4 4 3 3 3
7 4 3 2 1 2 2 1 1 3 4 3 4 5 4 3 2 1 0 2 4 3 4 3 3 2 2 3 3 3 4 5 5 6 7 7 7 7 7 7 7 7 7 6 6 5 4 3 3
4 3 3 2 2 2 2 1 1 3 3 4 4 4 3 3 1 1 3 4 4 3 3 2 2 1 0 1 2 2 3 4 5 5 6 7 7 8 8 8 8 8 8 7 7 7 6 5 4
3 3 2 0 2 2 2 2 2 2 2 3 4 5 3 3 3 4 4 4 4 3 3 3 3 2 2 3 3 4 4 5 5 6 6 7 7 8 8 8 8 8 8 8 8 8 8 7 5
3 3 3 2 2 2 2 1 2 3 4 4 4 5 2 1 3 4 4 4 3 3 3 4 4 4 4 4 4 5 6 6 7 7 7 8 8 8 9 9 9 9 9 8 9 9 8 8 7
3 3 2 3 2 2 1 1 3 4 3 3 5 5 2 1 2 4 5 4 4 3 3 4 5 6 6 6 6 6 6 7 7 7 8 8 8 9 9 9 9 9 9 9 9 9 9 9 8
4 3 2 2 3 2 1 2 2 3 3 3 4 7 5 4 5 5 5 4 3 3 2 3 4 5 5 6 6 7 7 7 7 8 8 7 7 8 9 9 9 9 9 10 10 9 9 9 9
3 3 2 3 4 3 2 3 2 2 5 3 2 4 5 8 7 6 4 2 2 1 2 2 2 4 5 5 6 7 7 7 7 7 7 7 6 6 7 8 8 9 9 9 8 8 9 9 8
4 3 4 3 4 3 2 3 5 4 4 3 4 4 7 8 7 6 5 4 2 1 1 1 1 2 4 5 6 7 6 7 6 6 6 5 5 5 5 7 8 9 8 7 7 7 8 6 4
4 5 3 1 2 3 3 3 4 8 4 6 8 9 8 7 7 7 6 5 4 2 0 1 1 2 3 3 4 5 6 6 6 6 5 5 4 4 5 5 6 7 7 5 4 5 4 4 3
3 2 2 2 1 3 4 5 4 6 6 6 10 11 9 8 8 8 7 5 3 3 2 0 1 1 2 3 3 3 3 4 4 5 5 3 2 2 3 2 4 4 4 3 3 2 3 3 4
3 2 1 1 1 1 3 4 4 4 2 7 10 9 10 9 8 6 5 4 4 4 2 1 0 1 2 2 3 3 3 3 4 5 5 3 1 2 2 2 3 3 3 2 2 2 2 3 3
2 1 1 1 1 1 3 1 2 5 6 9 10 9 9 9 8 6 5 5 5 4 3 1 0 1 2 2 2 2 3 4 4 4 5 4 2 2 2 3 2 3 3 3 2 2 2 2 2
3 2 2 1 2 2 4 2 6 5 9 9 9 9 8 8 7 7 7 7 6 5 3 2 2 1 2 2 3 2 3 3 3 4 5 6 4 3 2 2 3 3 4 3 2 2 1 2 2
3 2 1 3 3 3 5 6 6 7 10 10 9 8 7 7 7 7 7 6 5 4 3 2 1 1 2 2 2 2 3 3 3 4 5 6 6 5 3 2 3 4 3 2 1 1 1 2 2
2 2 3 4 4 4 5 7 3 7 10 10 9 8 7 6 6 6 6 6 5 5 3 2 0 0 1 2 2 3 3 3 3 4 5 6 6 6 3 2 3 4 2 2 2 1 1 2 2
5 4 4 6 4 6 6 8 5 6 10 10 9 8 8 8 8 6 6 5 5 3 3 2 1 1 1 2 2 3 3 3 3 4 4 6 6 6 4 2 4 4 2 2 2 2 1 2 2
6 4 5 6 3 6 8 10 7 7 9 9 9 9 9 9 5 5 6 6 4 3 3 2 2 1 1 1 2 2 2 3 3 3 5 6 6 6 4 3 3 3 2 2 2 1 1 1 1
5 4 6 4 2 5 5 9 7 7 10 10 11 11 10 7 5 6 6 6 5 4 4 3 3 2 1 1 1 1 1 2 3 3 4 6 6 6 4 3 3 3 3 3 3 2 1 1 0
5 7 6 4 1 1 2 8 6 3 5 7 8 8 8 10 10 9 8 7 5 5 6 5 5 3 2 1 1 1 2 3 3 4 4 5 6 6 4 4 3 3 2 2 3 2 1 1 1
6 7 5 4 3 2 0 4 8 4 4 7 8 8 9 9 8 8 8 8 7 7 6 5 5 4 2 1 0 1 0 1 2 3 4 5 5 5 5 4 3 3 2 2 3 2 1 0 1
5 2 4 3 3 1 1 2 8 3 5 9 9 10 9 9 10 10 10 10 8 6 6 5 4 4 3 2 1 1 1 2 2 3 4 5 5 5 5 4 3 3 3 3 2 2 1 0 1
6 7 7 6 5 2 4 5 7 5 8 6 7 9 10 10 9 9 8 6 6 5 5 5 5 5 3 3 2 2 2 2 3 3 4 4 4 4 5 4 3 3 3 3 2 2 1 1 0
5 6 4 4 3 6 3 4 9 7 8 8 8 10 9 9 9 9 9 8 8 7 7 6 6 6 5 4 3 3 4 3 3 3 3 3 3 3 5 4 4 3 3 3 2 2 2 2 1
5 8 7 5 5 5 2 6 8 7 5 5 5 6 8 9 9 10 10 10 9 9 8 7 7 7 5 5 5 4 3 3 3 3 3 3 3 4 4 4 4 4 3 3 2 2 2 2 2
7 4 6 6 2 3 6 7 9 3 2 1 4 6 9 10 10 10 9 9 9 9 9 8 8 7 6 6 5 4 4 4 4 3 3 3 3 3 4 3 3 4 4 3 2 2 2 2 2
6 9 6 5 4 4 7 6 6 7 8 5 6 8 9 8 9 9 9 9 9 8 7 6 7 8 6 5 5 4 4 4 4 3 3 3 4 3 3 4 4 4 4 3 2 2 2 2 3
5 5 5 5 5 5 4 8 7 8 8 9 10 9 9 10 10 10 9 9 8 7 6 6 7 6 6 5 5 4 4 3 3 3 3 3 3 3 3 3 3 3 4 3 3 3 3 3 3
6 8 8 5 5 5 4 8 7 8 8 9 10 9 8 9 9 9 9 7 7 7 7 7 7 7 7 5 5 4 4 3 3 4 4 3 3 3 3 3 3 4 3 3 3 4 3 3 3
Wind_Direction
147 119 94 67 59 55 290 290 276 337 60 49 55 73 83 69 72 107 306 359 108 130 160 175 173 168 166 171 180 182 185 184 181 179 179 179 179 178 178 178 174 170 164 157 151 141 134 122 113
132 113 82 67 86 72 284 292 338 6 131 125 61 61 71 69 61 68 358 60 98 112 122 155 173 174 179 188 194 201 204 209 206 203 202 201 200 199 199 196 194 192 188 182 179 178 173 157 142
120 88 88 73 113 194 252 308 72 67 99 91 70 49 66 52 60 83 259 107 93 90 101 132 155 168 188 208 215 223 229 232 232 229 224 221 217 217 217 215 211 209 207 202 200 201 200 195 180
118 82 68 76 258 248 251 273 132 116 83 64 95 71 57 20 22 136 122 112 99 77 81 92 100 98 15 287 277 274 270 266 262 259 252 244 238 237 236 234 228 226 223 219 214 211 212 214 212
74 99 88 64 273 281 260 237 210 140 92 78 96 94 62 6 69 104 109 100 99 79 55 52 61 43 12 351 344 332 318 304 296 287 278 272 265 257 252 250 246 242 238 235 227 222 219 222 224
85 88 113 201 253 286 282 220 124 97 104 110 105 107 108 54 91 111 107 98 89 79 49 35 28 20 7 357 345 334 326 317 313 311 305 296 287 279 269 262 258 253 248 243 241 234 229 228 229
126 117 171 193 211 254 204 135 122 120 117 131 128 115 127 135 142 116 96 86 72 61 50 31 23 15 6 358 348 338 330 325 324 320 320 313 305 294 284 278 272 265 258 252 249 246 241 239 237
134 116 144 192 201 225 155 100 91 116 122 111 122 139 171 182 140 107 87 73 63 54 40 19 15 14 9 0 356 351 344 339 335 331 329 326 323 316 306 297 292 282 271 262 257 252 248 245 245
109 90 201 212 194 223 157 124 92 66 102 82 101 154 157 136 122 109 94 64 45 44 26 18 11 5 359 352 358 358 352 348 347 343 338 344 341 331 315 306 301 292 283 274 269 262 254 251 249
116 157 223 209 191 185 165 154 151 110 99 97 83 90 113 125 132 141 156 169 177 191 336 9 9 359 1 4 6 2 356 350 346 341 338 339 336 326 318 315 313 306 298 290 272 261 257 253 257
156 187 215 224 198 154 146 148 147 137 178 190 171 156 144 144 153 167 180 185 193 189 151 21 355 358 6 356 354 356 351 350 349 347 345 342 340 331 329 324 319 319 315 310 291 269 245 223 223
148 203 196 209 166 150 159 151 160 186 215 191 168 157 155 163 176 186 187 188 179 162 169 164 21 20 13 9 355 353 348 347 349 348 352 349 340 332 327 317 312 315 308 295 287 257 236 225 220
171 206 251 316 41 163 151 166 184 219 199 139 145 153 166 177 188 194 187 183 172 172 183 188 53 39 9 5 350 6 349 344 344 350 356 357 334 322 320 311 315 312 306 289 278 259 224 213 216
174 176 294 336 64 149 149 164 167 225 150 144 157 172 182 187 187 179 180 187 188 189 194 196 150 29 19 13 359 349 349 347 353 357 356 360 351 329 324 321 319 313 312 294 276 275 250 226 211
100 67 342 259 176 167 127 243 228 197 153 163 178 185 190 197 190 190 191 189 191 192 196 206 197 67 30 15 358 2 355 1 4 0 3 8 2 346 337 329 325 313 315 304 290 280 244 238 230
75 71 292 264 173 168 158 250 246 171 165 183 192 196 197 201 204 202 192 188 186 182 193 223 165 80 26 13 354 353 2 8 3 359 2 4 3 358 352 345 329 323 322 311 291 273 253 238 231
66 180 236 273 194 165 183 243 262 171 178 194 199 205 203 206 211 204 195 190 185 185 185 185 113 51 357 3 358 359 6 9 3 2 1 357 358 2 3 348 331 337 332 325 312 277 228 241 242
196 206 228 242 213 172 205 243 254 188 192 203 204 208 208 210 217 200 189 183 176 173 172 176 206 293 350 358 358 1 8 3 3 1 356 358 356 357 358 348 345 350 351 341 333 307 267 244 252
165 185 233 245 197 180 226 250 253 204 203 211 212 211 215 219 219 190 180 171 163 162 175 200 224 261 360 10 355 352 341 334 342 343 352 356 356 355 355 354 355 358 360 340 330 316 314 290 258
159 199 239 271 187 188 252 269 262 208 209 210 209 210 209 203 190 187 181 177 179 185 199 218 234 246 247 239 259 259 284 302 301 317 345 357 357 355 360 1 353 351 352 358 360 356 345 317 334
191 204 216 219 83 94 328 308 291 257 225 215 208 201 198 196 195 193 188 193 193 205 211 217 227 236 245 250 23 17 13 355 352 345 341 340 346 352 358 359 352 349 352 345 338 342 11 318 312
219 225 198 160 117 287 89 283 289 286 258 227 215 199 198 198 191 191 192 197 206 216 215 221 226 234 242 210 145 99 50 319 297 303 312 323 342 350 359 1 357 351 349 341 328 8 337 252 296
199 94 122 115 129 357 306 206 286 305 259 246 225 210 203 196 191 194 199 202 209 212 211 218 226 239 240 224 207 187 248 263 293 309 327 338 340 348 356 356 355 352 348 342 342 354 8 321 232
123 74 60 52 72 301 233 184 278 243 229 246 222 208 200 194 194 200 203 201 214 217 217 218 225 243 240 232 227 218 244 270 305 322 332 334 331 333 345 349 350 346 347 340 335 345 1 1 278
98 94 38 354 0 253 252 205 250 257 242 235 225 208 195 188 188 193 198 204 213 217 219 217 222 242 243 237 239 237 242 246 258 278 298 313 324 321 327 341 338 338 336 337 345 359 352 346 336
155 138 157 205 233 280 278 235 254 261 275 246 217 189 179 186 192 198 203 204 211 217 218 216 222 238 241 237 243 246 242 238 250 259 263 276 279 286 306 326 333 335 339 353 3 357 336 341 327
129 152 156 135 178 275 281 283 300 244 260 170 163 168 190 199 200 204 205 207 211 216 218 215 219 233 237 233 237 246 247 245 253 264 266 272 279 290 312 328 340 341 345 354 0 345 329 328 321
134 138 108 124 161 264 295 286 261 255 237 220 206 206 212 208 207 209 208 210 214 218 222 217 218 227 232 228 230 236 242 247 257 266 275 280 292 304 321 332 338 342 349 353 356 336 329 337 322
118 110 110 117 151 162 273 279 233 237 226 215 220 218 213 208 208 208 210 212 212 216 216 218 220 224 229 226 227 239 252 257 261 261 269 278 289 300 311 319 327 333 336 338 341 329 334 339 329
176 171 151 158 205 176 190 268 268 253 243 220 225 227 220 213 210 207 205 201 205 213 216 219 219 221 225 219 217 229 245 254 259 265 274 277 283 289 292 306 316 318 321 325 325 322 331 331 323
Height
1515 1517 1519 1521 1524 1529 1529 1523 1518 1517 1517 1518 1517 1517 1519 1523 1526 1531 1527 1525 1526 1527 1528 1529 1530 1532 1532 1534 1535 1535 1535 1536 1536 1536 1537 1537 1537 1537 1537 1537 1537 1537 1537 1537 1537 1537 1537 1537 1537
1516 1518 1521 1522 1527 1535 1530 1520 1518 1517 1517 1518 1518 1519 1521 1523 1525 1526 1526 1526 1527 1528 1529 1529 1531 1532 1532 1533 1534 1535 1535 1535 1535 1535 1536 1536 1536 1536 1536 1536 1536 1536 1536 1536 1537 1537 1537 1537 1537
1516 1519 1521 1523 1528 1532 1526 1519 1518 1517 1518 1519 1520 1521 1523 1525 1526 1526 1527 1527 1528 1529 1529 1530 1531 1531 1532 1532 1533 1534 1534 1534 1534 1534 1535 1535 1535 1535 1535 1535 1534 1534 1535 1535 1535 1536 1536 1536 1536
1517 1520 1522 1526 1528 1523 1521 1519 1518 1518 1519 1520 1521 1523 1525 1526 1526 1527 1527 1528 1529 1529 1530 1531 1531 1531 1531 1532 1532 1532 1532 1532 1533 1533 1533 1533 1533 1533 1533 1533 1533 1533 1533 1534 1534 1534 1535 1535 1536
1517 1519 1524 1528 1525 1520 1518 1518 1517 1517 1519 1521 1521 1524 1526 1527 1527 1528 1528 1529 1530 1530 1531 1531 1531 1531 1531 1531 1531 1531 1531 1530 1531 1531 1531 1531 1531 1531 1531 1531 1531 1531 1532 1532 1532 1533 1533 1534 1535
1517 1519 1528 1531 1525 1519 1517 1517 1517 1518 1520 1521 1522 1524 1526 1528 1528 1529 1530 1530 1531 1531 1531 1531 1531 1530 1530 1530 1530 1529 1529 1528 1528 1528 1528 1528 1528 1528 1528 1528 1528 1529 1529 1530 1531 1531 1532 1533 1533
1517 1520 1526 1526 1525 1521 1518 1517 1518 1519 1520 1521 1522 1524 1526 1527 1528 1529 1530 1531 1531 1531 1531 1531 1530 1530 1529 1528 1528 1527 1527 1526 1526 1525 1525 1525 1525 1525 1526 1526 1526 1526 1527 1528 1528 1529 1530 1531 1532
1515 1520 1524 1525 1524 1521 1517 1517 1518 1519 1520 1522 1522 1523 1525 1527 1528 1529 1530 1531 1531 1531 1531 1531 1530 1529 1528 1527 1527 1526 1525 1524 1523 1523 1522 1522 1522 1522 1522 1523 1523 1523 1524 1525 1526 1527 1528 1528 1529
1515 1523 1526 1523 1522 1519 1517 1517 1519 1519 1520 1521 1522 1523 1524 1526 1528 1529 1530 1531 1531 1531 1530 1530 1529 1528 1527 1526 1525 1524 1523 1522 1521 1521 1520 1520 1520 1520 1520 1520 1520 1521 1521 1522 1523 1524 1525 1526 1527
1515 1523 1520 1516 1515 1515 1516 1517 1517 1519 1520 1521 1522 1523 1525 1526 1528 1529 1530 1530 1530 1530 1530 1529 1528 1527 1526 1525 1523 1522 1521 1520 1520 1519 1518 1518 1518 1517 1517 1517 1517 1518 1518 1519 1520 1521 1522 1523 1524
1513 1516 1513 1513 1513 1513 1515 1516 1517 1518 1520 1520 1520 1522 1524 1526 1528 1529 1529 1530 1530 1530 1529 1528 1528 1526 1525 1523 1522 1520 1519 1518 1518 1517 1517 1516 1516 1515 1515 1515 1514 1515 1515 1516 1517 1518 1519 1520 1521
1512 1512 1512 1512 1512 1512 1514 1515 1516 1516 1517 1518 1519 1521 1523 1525 1527 1528 1529 1529 1529 1529 1529 1528 1527 1525 1524 1522 1520 1519 1517 1516 1516 1515 1515 1514 1514 1514 1513 1513 1512 1512 1512 1513 1514 1515 1516 1517 1518
1511 1511 1511 1511 1511 1512 1513 1514 1515 1516 1516 1517 1520 1522 1523 1525 1526 1527 1528 1529 1529 1528 1528 1527 1526 1525 1523 1521 1519 1517 1516 1515 1514 1513 1513 1512 1512 1511 1511 1511 1511 1510 1510 1511 1511 1512 1513 1514 1515
1510 1511 1511 1511 1511 1512 1513 1514 1515 1514 1516 1517 1519 1521 1522 1524 1525 1526 1527 1528 1528 1528 1527 1526 1525 1524 1522 1520 1518 1516 1515 1514 1513 1512 1511 1510 1510 1509 1509 1509 1508 1508 1508 1508 1508 1509 1510 1511 1512
1511 1512 1512 1511 1511 1512 1514 1516 1513 1512 1515 1516 1518 1520 1522 1523 1524 1525 1526 1527 1527 1527 1527 1526 1524 1523 1521 1519 1517 1515 1514 1513 1512 1511 1510 1509 1508 1507 1507 1506 1506 1506 1506 1506 1506 1506 1507 1508 1509
1512 1516 1519 1512 1511 1512 1517 1519 1510 1511 1513 1515 1517 1519 1520 1522 1523 1525 1526 1526 1527 1526 1526 1525 1524 1522 1520 1518 1516 1515 1513 1512 1511 1510 1508 1508 1507 1506 1505 1504 1504 1503 1503 1503 1504 1504 1505 1506 1506
1517 1522 1520 1514 1509 1510 1514 1515 1509 1509 1511 1513 1515 1517 1519 1520 1522 1523 1524 1525 1526 1526 1525 1524 1523 1521 1519 1517 1516 1514 1513 1512 1510 1509 1508 1507 1505 1504 1503 1502 1502 1501 1501 1501 1501 1502 1502 1503 1504
1521 1521 1519 1516 1508 1510 1513 1512 1508 1509 1510 1511 1513 1515 1517 1518 1520 1521 1523 1524 1525 1525 1524 1523 1522 1520 1519 1517 1515 1514 1512 1511 1510 1509 1507 1506 1505 1504 1502 1501 1500 1500 1499 1499 1499 1499 1500 1500 1501
1511 1515 1517 1511 1506 1510 1512 1510 1507 1507 1509 1509 1511 1512 1514 1516 1518 1520 1521 1522 1523 1523 1523 1522 1521 1519 1518 1516 1515 1513 1512 1511 1510 1508 1507 1506 1504 1503 1502 1500 1499 1498 1498 1497 1497 1497 1497 1498 1499
1510 1515 1514 1509 1506 1509 1511 1509 1504 1504 1504 1504 1506 1508 1510 1513 1515 1517 1519 1520 1521 1522 1522 1521 1520 1519 1517 1515 1514 1513 1512 1510 1509 1508 1507 1505 1504 1502 1501 1500 1498 1497 1497 1496 1495 1495 1495 1496 1497
1510 1512 1511 1511 1508 1509 1511 1512 1505 1501 1501 1502 1503 1505 1507 1510 1512 1514 1516 1518 1520 1520 1520 1520 1519 1518 1516 1515 1514 1513 1512 1510 1509 1508 1506 1505 1503 1502 1501 1499 1498 1497 1496 1495 1494 1494 1494 1494 1495
1512 1503 1505 1508 1515 1521 1517 1529 1510 1503 1501 1499 1500 1501 1504 1507 1510 1512 1514 1516 1518 1519 1519 1519 1518 1517 1516 1515 1514 1513 1511 1510 1509 1507 1506 1504 1503 1502 1500 1499 1497 1496 1495 1494 1494 1493 1493 1493 1494
1503 1501 1505 1509 1515 1523 1521 1528 1517 1505 1502 1498 1496 1498 1500 1504 1507 1510 1512 1514 1516 1518 1518 1518 1517 1517 1516 1515 1514 1512 1511 1510 1508 1507 1505 1504 1503 1501 1500 1498 1497 1495 1494 1494 1493 1492 1492 1492 1492
1500 1506 1512 1519 1524 1533 1522 1528 1522 1508 1499 1494 1492 1494 1497 1501 1505 1508 1511 1513 1515 1516 1517 1517 1516 1516 1515 1514 1513 1512 1511 1509 1508 1507 1505 1504 1502 1501 1499 1497 1496 1495 1494 1493 1492 1492 1491 1491 1491
1502 1516 1532 1533 1541 1536 1520 1523 1517 1496 1492 1490 1489 1491 1494 1498 1502 1505 1508 1510 1512 1514 1515 1515 1515 1515 1514 1513 1512 1511 1510 1509 1508 1506 1505 1503 1501 1500 1498 1497 1496 1494 1493 1492 1491 1491 1490 1490 1490
1505 1512 1531 1540 1542 1534 1522 1523 1506 1491 1488 1487 1487 1489 1492 1496 1499 1502 1505 1508 1510 1512 1513 1513 1513 1513 1513 1512 1511 1510 1509 1508 1507 1506 1504 1503 1501 1499 1498 1496 1495 1494 1492 1491 1490 1490 1489 1489 1488
1506 1511 1514 1528 1531 1534 1527 1516 1498 1487 1486 1486 1487 1488 1490 1493 1496 1500 1503 1506 1508 1509 1511 1511 1512 1512 1511 1511 1510 1509 1508 1507 1506 1505 1504 1502 1501 1499 1497 1496 1494 1493 1491 1490 1489 1488 1488 1487 1487
1499 1508 1521 1529 1536 1539 1529 1519 1509 1492 1487 1486 1486 1487 1488 1491 1494 1497 1500 1503 1505 1507 1509 1509 1510 1510 1510 1509 1509 1508 1507 1506 1505 1504 1502 1501 1500 1498 1497 1495 1493 1492 1491 1489 1488 1487 1486 1486 1485
1504 1509 1517 1528 1530 1539 1537 1522 1492 1487 1484 1484 1483 1484 1486 1488 1491 1494 1497 1500 1503 1505 1506 1507 1508 1508 1508 1508 1507 1507 1506 1505 1504 1503 1501 1500 1498 1497 1496 1494 1493 1491 1490 1489 1488 1486 1485 1484 1484
1494 1501 1511 1521 1525 1532 1535 1520 1483 1482 1480 1480 1480 1482 1484 1486 1489 1492 1495 1497 1500 1502 1503 1505 1505 1506 1506 1506 1506 1505 1505 1504 1503 1501 1500 1499 1497 1496 1495 1493 1492 1490 1489 1488 1487 1485 1484 1483 1482